Portada
METAR-TAF:

METAR-TAF

Aeroports :

Soldotna, Alaska, Estats Units d'Amèrica

latitud: 60-29N, longitud: 151-02W, altitud: 33 m

Observació

L'informe es va fer fa 26 minuts, a les 10:56 UTC
Vent 8 kt del Nord-Est
Temperatura 3°C
Humitat 75%
Pressió 1002 hPa
Visibilitat: 16.1 km
Cel cobert a una alçada de 6500 ft

METAR: PASX 151056Z AUTO 05008KT 10SM OVC065 03/M01 A2960 RMK AO2 SLP034 T00281011

Hora: 02:22 (11:22 UTC)


TAF: manca

Observacions i pronòstics meteorològics de més de 4000 aeroports (METAR i TAF).

Les estacions disponibles són els punts grocs i vermells al mapa.

Posi el ratolí al punt desitjat per veure el nom de l'estació.

Feu clic per veure les observacions i els pronòstics meteorològics.

Per canviar el mapa: feu clic els botons verds amb una creu de color negre per apropar; al botó verd amb un guió per allunyar la imatge; o en les fletxes verdes per a mapes adjacents.


METAR-TAF: